This demonstration page uses our WeatherBlox Daily Observations layout. Learn more.

Left ArrowRight Arrow

41.55636, -103.73856

Hourly Observations for June 25, 2015

Temp ( °F °C ) Dew Point ( °F °C ) Humidity (%) Winds ( mph kmh ) Pressure ( in mb ) Visibility ( mi km ) Precip ( " mm )
12:53 am 00:53 Clear 65 18.3 62 16.7 90 90 E 7 11 29.94 1014 10 16.0934 0 0
1:53 am 01:53 Clear 64 17.8 61 16.1 90 90 ESE 5 7 29.93 1014 9 14.48406 0 0
2:53 am 02:53 Clear 65 18.3 62 16.7 90 90 E 12 19 29.91 1013 10 16.0934 0 0
3:53 am 03:53 Clear 65 18.3 63 17.2 93 93 E 14 22 29.93 1013 9 14.48406 0 0
4:53 am 04:53 Clear 65 18.3 63 17.2 93 93 E 9 15 29.97 1015 10 16.0934 0 0
5:23 am 05:23 Mostly Cloudy 66 18.9 64 17.8 93 93 E 13 20 29.97 1015 9 14.48406 0 0
5:53 am 05:53 Cloudy 67 19.4 64 17.8 91 91 ENE 13 20 30.01 1016 9 14.48406 0 0
6:07 am 06:07 Cloudy 67 19.4 63 17.2 87 87 E 10 17 29.97 1015 10 16.0934 0 0
6:30 am 06:30 Cloudy 66 19 63 17 88 88 E 14 22 29.97 1015 10 16.0934 0 0
6:53 am 06:53 Cloudy 67 19.4 63 17.2 87 87 ESE 10 17 30.02 1017 10 16.0934 0 0
7:09 am 07:09 Cloudy 68 20 63 17.2 84 84 ESE 13 20 29.94 1014 10 16.0934 0 0
7:53 am 07:53 Cloudy 67 19.4 64 17.8 91 91 ESE 12 19 30.02 1017 7 11.26538 0 0
8:35 am 08:35 Cloudy 70 21.1 64 17.8 82 82 SSE 10 17 29.94 1014 8 12.87472 0 0
8:53 am 08:53 Cloudy 70 21.1 64 17.8 82 82 SE 9 15 30.03 1017 7 11.26538 0 0
9:53 am 09:53 Cloudy 74 23.3 64 17.8 71 71 SE 6 9 30.02 1017 10 16.0934 0 0
10:06 am 10:06 Cloudy 73 22.8 64 17.8 74 74 SE 8 13 29.91 1013 10 16.0934 0 0
10:53 am 10:53 Mostly Cloudy 76 24.4 64 17.8 67 67 ESE 13 20 30 1016 10 16.0934 0 0
11:53 am 11:53 Partly Cloudy 79 26.1 63 17.2 58 58 SSE 12 19 29.98 1015 10 16.0934 0 0
12:53 pm 12:53 Mostly Cloudy 81 27.2 60 15.6 49 49 SSE 6 9 29.99 1016 10 16.0934 0 0
1:53 pm 13:53 Sunny 84 28.9 61 16.1 46 46 SSE 8 13 29.95 1014 10 16.0934 0 0
2:53 pm 14:53 Mostly Sunny 86 30 60 15.6 42 42 undefined N/A 29.92 1013 10 16.0934 0 0
3:53 pm 15:53 Mostly Sunny 87 30.6 59 15 39 39 SE 8 13 29.9 1013 10 16.0934 0 0
4:45 pm 16:45 Partly Cloudy with Nearby Thunderstorms 84 28.9 60 15.6 44 44 SE 8 13 29.68 1005 10 16.0934 0 0
4:53 pm 16:53 Partly Cloudy with Nearby Thunderstorms 84 28.9 59 15 43 43 SSE 7 11 29.84 1011 10 16.0934 0 0
5:53 pm 17:53 Mostly Cloudy with Nearby Thunderstorms 72 22.2 62 16.7 71 71 SE 10 17 29.96 1015 10 16.0934 0 0.0254
6:04 pm 18:04 Mostly Cloudy with Thunderstorms 72 22 63 17 73 73 E 13 20 29.88 1012 10 16.0934 0 0
6:21 pm 18:21 Cloudy with Heavy Thunderstorms 68 20 63 17 83 83 ENE 18 30 29.91 1013 2 3.21868 0 0
6:26 pm 18:26 Cloudy with Heavy Thunderstorms 66 18.9 64 17.8 93 93 E 23 37 29.88 1012 0.75 1.207005 0.22 5.588
6:35 pm 18:35 Cloudy with Light Thunderstorms 66 18.9 65 18.3 96 96 SSE 8 13 29.97 1015 2 3.21868 0.25 6.35
6:43 pm 18:43 Cloudy with Light Thunderstorms 66 18.9 65 18.3 96 96 ESE 15 24 29.97 1015 8 12.87472 0.25 6.35
6:53 pm 18:53 Cloudy with Nearby Thunderstorms 66 19 N/A N/A ESE 13 20 30.01 1016 10 16.0934 0.25 6.35
7:07 pm 19:07 Cloudy with Light Rain 66 19 N/A N/A E 17 28 29.97 1015 10 16.0934 0 0.0254
7:22 pm 19:22 Mostly Cloudy 64 18 N/A N/A E 13 20 29.97 1015 10 16.0934 0 0
7:32 pm 19:32 Mostly Cloudy with Light Rain 64 18 64 18 100 100 E 14 22 29.97 1015 10 16.0934 0 0
7:53 pm 19:53 Mostly Cloudy 66 18.9 66 18.9 100 100 SE 7 11 30.05 1018 10 16.0934 0 0.0254
8:10 pm 20:10 Mostly Cloudy with Light Rain 66 19 64 18 94 94 ENE 10 17 30 1016 10 16.0934 0 0
8:29 pm 20:29 Partly Cloudy 65 18.3 64 17.8 97 97 ENE 12 19 29.97 1015 10 16.0934 0 0.0254
8:53 pm 20:53 Clear 65 18.3 63 17.2 93 93 ENE 9 15 30.04 1017 10 16.0934 0 0.0254
9:53 pm 21:53 Mostly Cloudy 64 17.8 61 16.1 90 90 ESE 7 11 30.06 1018 10 16.0934 0 0
10:07 pm 22:07 Partly Cloudy 64 17.8 61 16.1 90 90 ESE 5 7 30 1016 10 16.0934 0 0
10:32 pm 22:32 Mostly Cloudy 63 17 61 16 94 94 ESE 5 7 30.06 1018 10 16.0934 0 0
10:40 pm 22:40 Partly Cloudy 63 17 61 16 94 94 Calm 30.06 1018 10 16.0934 0 0
10:53 pm 22:53 Partly Cloudy 62 16.7 61 16.1 96 96 Calm 30.09 1019 10 16.0934 0 0
11:30 pm 23:30 Mostly Cloudy 63 17 61 16 94 94 NNW 3 6 30.09 1019 10 16.0934 0 0
11:53 pm 23:53 Mostly Cloudy 61 16.1 59 15 93 93 NNW 7 11 30.1 1019 10 16.0934 0 0

Powered by AerisWeather